| time (UTC) | temp C | wind direction | speed KPH | gust KPH | rain 1hr cm | rain 24hr cm | rain mn cm | humidity % | barometer mb |
| 20260502130428 | 7 | 87 | 0.0 | 0.0 | 0.00 | 0.00 | 0.00 | 70 | 1021.8 |
| 20260502123411 | 3 | 89 | 0.0 | 0.0 | 0.00 | 0.00 | 0.00 | 92 | 1021.5 |
| 20260502122908 | 2 | 94 | 0.0 | 0.0 | 0.00 | 0.00 | 0.00 | 92 | 1021.6 |
| 20260502122404 | 2 | 90 | 0.0 | 0.0 | 0.00 | 0.00 | 0.00 | 93 | 1021.5 |
| 20260502121903 | 1 | 87 | 0.0 | 0.0 | 0.00 | 0.00 | 0.00 | 93 | 1021.5 |
| 20260502121359 | 1 | 86 | 0.0 | 0.0 | 0.00 | 0.00 | 0.00 | 93 | 1021.3 |
| 20260502120857 | 1 | 85 | 0.0 | 0.0 | 0.00 | 0.00 | 0.00 | 93 | 1021.5 |
| 20260502120353 | 1 | 85 | 0.0 | 0.0 | 0.00 | 0.00 | 0.00 | 93 | 1021.2 |
| 20260502115850 | 1 | 85 | 0.0 | 0.0 | 0.00 | 0.00 | 0.00 | 93 | 1021.1 |
| 20260502115347 | 1 | 85 | 0.0 | 0.0 | 0.00 | 0.00 | 0.00 | 93 | 1021.0 |
| 20260502114843 | 0 | 86 | 0.0 | 0.0 | 0.00 | 0.00 | 0.00 | 93 | 1021.0 |
| 20260502114340 | 0 | 84 | 0.0 | 0.0 | 0.00 | 0.00 | 0.00 | 93 | 1020.8 |
| 20260502113837 | 0 | 85 | 0.0 | 0.0 | 0.00 | 0.00 | 0.00 | 92 | 1020.9 |
| 20260502113335 | 0 | 83 | 0.0 | 0.0 | 0.00 | 0.00 | 0.00 | 92 | 1021.0 |
| 20260502112833 | 0 | 81 | 0.0 | 0.0 | 0.00 | 0.00 | 0.00 | 92 | 1020.8 |
| 20260502112330 | 0 | 83 | 0.0 | 0.0 | 0.00 | 0.00 | 0.00 | 92 | 1020.9 |
| 20260502111828 | 1 | 84 | 0.0 | 0.0 | 0.00 | 0.00 | 0.00 | 92 | 1020.9 |
| 20260502111325 | 1 | 87 | 0.0 | 0.0 | 0.00 | 0.00 | 0.00 | 91 | 1021.0 |
| 20260502110823 | 1 | 83 | 0.0 | 0.0 | 0.00 | 0.00 | 0.00 | 91 | 1020.6 |
| 20260502110320 | 1 | 83 | 0.0 | 0.0 | 0.00 | 0.00 | 0.00 | 91 | 1020.5 |
| 20260502105818 | 1 | 81 | 0.0 | 0.0 | 0.00 | 0.00 | 0.00 | 91 | 1020.6 |
| 20260502105314 | 1 | 83 | 0.0 | 0.0 | 0.00 | 0.00 | 0.00 | 91 | 1020.6 |
| 20260502104812 | 1 | 80 | 0.0 | 0.0 | 0.00 | 0.00 | 0.00 | 91 | 1020.7 |
| 20260502104309 | 1 | 84 | 0.0 | 0.0 | 0.00 | 0.00 | 0.00 | 91 | 1020.7 |
| 20260502103806 | 1 | 85 | 0.0 | 0.0 | 0.00 | 0.00 | 0.00 | 91 | 1020.7 |
| 20260502103303 | 1 | 85 | 0.0 | 0.0 | 0.00 | 0.00 | 0.00 | 90 | 1020.6 |
| 20260502102801 | 1 | 84 | 0.0 | 0.0 | 0.00 | 0.00 | 0.00 | 90 | 1020.7 |
| 20260502102257 | 1 | 84 | 0.0 | 0.0 | 0.00 | 0.00 | 0.00 | 89 | 1020.6 |
| 20260502101755 | 1 | 84 | 0.0 | 0.0 | 0.00 | 0.00 | 0.00 | 89 | 1020.4 |
| 20260502101253 | 1 | 84 | 0.0 | 0.0 | 0.00 | 0.00 | 0.00 | 88 | 1020.4 |
| 20260502100751 | 1 | 84 | 0.0 | 0.0 | 0.00 | 0.00 | 0.00 | 89 | 1020.4 |
| 20260502100250 | 1 | 81 | 0.0 | 0.0 | 0.00 | 0.00 | 0.00 | 88 | 1020.1 |
| 20260502091224 | 2 | 81 | 0.0 | 0.0 | 0.00 | 0.00 | 0.00 | 80 | 1020.0 |
| 20260502090721 | 3 | 81 | 0.0 | 0.0 | 0.00 | 0.00 | 0.00 | 79 | 1020.0 |
| 20260502090218 | 3 | 82 | 0.0 | 0.0 | 0.00 | 0.00 | 0.00 | 77 | 1019.9 |
| 20260502071113 | 6 | 77 | 0.0 | 0.0 | 0.00 | 0.00 | 0.00 | 63 | 1019.6 |
| 20260502070611 | 6 | 76 | 0.0 | 1.6 | 0.00 | 0.00 | 0.00 | 63 | 1019.6 |
| 20260502070109 | 6 | 75 | 0.0 | 1.6 | 0.00 | 0.00 | 0.00 | 62 | 1019.6 |
| 20260502065607 | 6 | 81 | 0.0 | 1.6 | 0.00 | 0.00 | 0.00 | 61 | 1019.8 |
| 20260502065104 | 6 | 52 | 1.6 | 1.6 | 0.00 | 0.00 | 0.00 | 60 | 1019.7 |
| 20260502064603 | 6 | 81 | 1.6 | 1.6 | 0.00 | 0.00 | 0.00 | 61 | 1019.8 |
| 20260502064100 | 7 | 87 | 0.0 | 0.0 | 0.00 | 0.00 | 0.00 | 61 | 1019.8 |
| 20260502063557 | 7 | 66 | 1.6 | 1.6 | 0.00 | 0.00 | 0.00 | 61 | 1020.0 |
| 20260502063055 | 7 | 80 | 0.0 | 0.0 | 0.00 | 0.00 | 0.00 | 59 | 1020.0 |
| 20260502062552 | 7 | 47 | 1.6 | 1.6 | 0.00 | 0.00 | 0.00 | 58 | 1019.9 |
| 20260502062050 | 7 | 84 | 0.0 | 0.0 | 0.00 | 0.00 | 0.00 | 57 | 1019.8 |
| 20260502061547 | 8 | 76 | 1.6 | 3.2 | 0.00 | 0.00 | 0.00 | 56 | 1020.0 |
| 20260502061044 | 8 | 67 | 0.0 | 0.0 | 0.00 | 0.00 | 0.00 | 56 | 1019.6 |
| 20260502060539 | 8 | 79 | 1.6 | 1.6 | 0.00 | 0.00 | 0.00 | 54 | 1019.6 |
| 20260502060037 | 8 | 58 | 3.2 | 3.2 | 0.00 | 0.00 | 0.00 | 54 | 1019.8 |
| 20260502055534 | 8 | 24 | 4.8 | 4.8 | 0.00 | 0.00 | 0.00 | 52 | 1019.6 |
| 20260502055033 | 8 | 56 | 1.6 | 1.6 | 0.00 | 0.00 | 0.00 | 52 | 1019.7 |
| 20260502054531 | 8 | 52 | 4.8 | 4.8 | 0.00 | 0.00 | 0.00 | 52 | 1019.8 |
| 20260502054027 | 9 | 358 | 4.8 | 4.8 | 0.00 | 0.00 | 0.00 | 51 | 1019.5 |
| 20260502053524 | 9 | 33 | 6.4 | 8.0 | 0.00 | 0.00 | 0.00 | 50 | 1019.3 |
| 20260502053022 | 9 | 37 | 6.4 | 9.7 | 0.00 | 0.00 | 0.00 | 50 | 1019.6 |
| 20260502052520 | 9 | 35 | 1.6 | 3.2 | 0.00 | 0.00 | 0.00 | 50 | 1019.3 |
| 20260502052018 | 9 | 30 | 6.4 | 9.7 | 0.00 | 0.00 | 0.00 | 51 | 1019.6 |
| 20260502051516 | 9 | 65 | 1.6 | 3.2 | 0.00 | 0.00 | 0.00 | 51 | 1019.3 |
| 20260502051013 | 9 | 17 | 3.2 | 4.8 | 0.00 | 0.00 | 0.00 | 51 | 1019.3 |
| 20260502050509 | 9 | 3 | 3.2 | 4.8 | 0.00 | 0.00 | 0.00 | 51 | 1019.1 |
| 20260502050007 | 9 | 53 | 3.2 | 3.2 | 0.00 | 0.00 | 0.00 | 52 | 1019.2 |
| 20260502045503 | 9 | 63 | 1.6 | 3.2 | 0.00 | 0.00 | 0.00 | 52 | 1019.1 |
| 20260502045001 | 9 | 351 | 1.6 | 4.8 | 0.00 | 0.00 | 0.00 | 53 | 1019.3 |
| 20260502044456 | 9 | 55 | 3.2 | 4.8 | 0.00 | 0.00 | 0.00 | 53 | 1019.2 |
| 20260502043953 | 9 | 76 | 3.2 | 4.8 | 0.00 | 0.00 | 0.00 | 53 | 1019.2 |
| 20260502043451 | 9 | 78 | 1.6 | 1.6 | 0.00 | 0.00 | 0.00 | 54 | 1019.3 |
| 20260502042950 | 9 | 47 | 1.6 | 3.2 | 0.00 | 0.00 | 0.00 | 53 | 1019.3 |
| 20260502042447 | 9 | 50 | 1.6 | 1.6 | 0.00 | 0.00 | 0.00 | 55 | 1019.2 |
| 20260502041945 | 10 | 42 | 4.8 | 4.8 | 0.00 | 0.00 | 0.00 | 53 | 1019.1 |
| 20260502041443 | 10 | 58 | 3.2 | 3.2 | 0.00 | 0.00 | 0.00 | 55 | 1019.1 |
| 20260502040939 | 9 | 40 | 3.2 | 4.8 | 0.00 | 0.00 | 0.00 | 55 | 1019.2 |
| 20260502040436 | 9 | 62 | 1.6 | 1.6 | 0.00 | 0.00 | 0.00 | 55 | 1019.2 |
| 20260502035932 | 9 | 22 | 3.2 | 3.2 | 0.00 | 0.00 | 0.00 | 56 | 1019.0 |
| 20260502035428 | 9 | 63 | 1.6 | 3.2 | 0.00 | 0.00 | 0.00 | 58 | 1019.0 |
| 20260502034926 | 8 | 25 | 3.2 | 8.0 | 0.00 | 0.00 | 0.00 | 59 | 1019.0 |
| 20260502034425 | 8 | 70 | 0.0 | 1.6 | 0.00 | 0.00 | 0.00 | 60 | 1019.0 |
| 20260502033923 | 9 | 69 | 1.6 | 1.6 | 0.00 | 0.00 | 0.00 | 60 | 1019.2 |
| 20260502033420 | 9 | 88 | 0.0 | 0.0 | 0.00 | 0.00 | 0.00 | 60 | 1018.9 |
| 20260502032917 | 9 | 79 | 0.0 | 0.0 | 0.00 | 0.00 | 0.00 | 60 | 1018.9 |
| 20260502032413 | 9 | 87 | 1.6 | 1.6 | 0.00 | 0.00 | 0.00 | 60 | 1018.8 |
| 20260502031910 | 10 | 70 | 3.2 | 3.2 | 0.00 | 0.00 | 0.00 | 59 | 1018.7 |
| 20260502031409 | 10 | 83 | 0.0 | 0.0 | 0.00 | 0.00 | 0.00 | 61 | 1018.9 |
| 20260502030907 | 10 | 64 | 1.6 | 3.2 | 0.00 | 0.00 | 0.00 | 62 | 1018.8 |
| 20260502030404 | 10 | 79 | 1.6 | 1.6 | 0.00 | 0.00 | 0.00 | 62 | 1018.6 |
| 20260502025903 | 10 | 84 | 0.0 | 1.6 | 0.00 | 0.00 | 0.00 | 62 | 1018.7 |
| 20260502025359 | 10 | 300 | 1.6 | 4.8 | 0.00 | 0.00 | 0.00 | 62 | 1018.6 |
| 20260502024857 | 10 | 79 | 0.0 | 0.0 | 0.00 | 0.00 | 0.00 | 62 | 1018.3 |
| 20260502024354 | 10 | 79 | 0.0 | 0.0 | 0.00 | 0.00 | 0.00 | 61 | 1018.4 |
| 20260502023852 | 10 | 71 | 1.6 | 1.6 | 0.00 | 0.00 | 0.00 | 60 | 1018.3 |
| 20260502023350 | 10 | 78 | 0.0 | 1.6 | 0.00 | 0.00 | 0.00 | 60 | 1018.0 |
| 20260502022847 | 10 | 77 | 0.0 | 0.0 | 0.00 | 0.00 | 0.00 | 61 | 1018.2 |
| 20260502022343 | 11 | 81 | 0.0 | 0.0 | 0.00 | 0.00 | 0.00 | 61 | 1017.7 |
| 20260502021840 | 11 | 73 | 1.6 | 1.6 | 0.00 | 0.00 | 0.00 | 59 | 1018.0 |
| 20260502021338 | 11 | 73 | 0.0 | 1.6 | 0.00 | 0.00 | 0.00 | 59 | 1017.6 |
| 20260502020835 | 11 | 78 | 1.6 | 1.6 | 0.00 | 0.00 | 0.00 | 59 | 1017.6 |
| 20260502020333 | 11 | 77 | 0.0 | 0.0 | 0.00 | 0.00 | 0.00 | 58 | 1017.4 |
| 20260502015829 | 11 | 79 | 0.0 | 0.0 | 0.00 | 0.00 | 0.00 | 58 | 1017.4 |
| 20260502015327 | 12 | 64 | 1.6 | 1.6 | 0.00 | 0.00 | 0.00 | 56 | 1017.2 |
| 20260502014824 | 12 | 72 | 0.0 | 1.6 | 0.00 | 0.00 | 0.00 | 56 | 1017.3 |
| 20260502014321 | 12 | 80 | 1.6 | 1.6 | 0.00 | 0.00 | 0.00 | 55 | 1017.3 |
| 20260502013817 | 12 | 52 | 1.6 | 3.2 | 0.00 | 0.00 | 0.00 | 53 | 1017.0 |
| 20260502013313 | 13 | 78 | 0.0 | 0.0 | 0.00 | 0.00 | 0.00 | 53 | 1017.0 |
| 20260502012809 | 13 | 62 | 0.0 | 0.0 | 0.00 | 0.00 | 0.00 | 52 | 1017.0 |
| 20260502012307 | 13 | 68 | 1.6 | 1.6 | 0.00 | 0.00 | 0.00 | 52 | 1017.0 |
| 20260502011804 | 13 | 67 | 0.0 | 0.0 | 0.00 | 0.00 | 0.00 | 51 | 1017.1 |
| 20260502011300 | 13 | 54 | 1.6 | 3.2 | 0.00 | 0.00 | 0.00 | 50 | 1016.9 |
| 20260502010758 | 14 | 80 | 1.6 | 1.6 | 0.00 | 0.00 | 0.00 | 48 | 1016.7 |
| 20260502010254 | 14 | 35 | 3.2 | 3.2 | 0.00 | 0.00 | 0.00 | 47 | 1016.5 |
| 20260502005751 | 15 | 81 | 0.0 | 1.6 | 0.00 | 0.00 | 0.00 | 46 | 1016.4 |
| 20260502005248 | 15 | 80 | 1.6 | 1.6 | 0.00 | 0.00 | 0.00 | 46 | 1016.5 |
| 20260502004745 | 15 | 86 | 0.0 | 0.0 | 0.00 | 0.00 | 0.00 | 45 | 1016.4 |
| 20260502004242 | 15 | 81 | 1.6 | 1.6 | 0.00 | 0.00 | 0.00 | 44 | 1016.2 |
| 20260502003740 | 15 | 72 | 1.6 | 3.2 | 0.00 | 0.00 | 0.00 | 44 | 1016.4 |
| 20260502003237 | 16 | 54 | 1.6 | 1.6 | 0.00 | 0.00 | 0.00 | 43 | 1016.3 |
| 20260502002732 | 16 | 261 | 4.8 | 9.7 | 0.00 | 0.00 | 0.00 | 42 | 1016.1 |
| 20260502002230 | 16 | 75 | 1.6 | 1.6 | 0.00 | 0.00 | 0.00 | 40 | 1015.9 |
| 20260502001727 | 17 | 25 | 3.2 | 3.2 | 0.00 | 0.00 | 0.00 | 39 | 1015.8 |
| 20260502001225 | 17 | 82 | 1.6 | 1.6 | 0.00 | 0.00 | 0.00 | 41 | 1015.9 |
| 20260502000722 | 17 | 103 | 1.6 | 1.6 | 0.00 | 0.00 | 0.00 | 40 | 1016.0 |
| 20260502000220 | 17 | 76 | 1.6 | 3.2 | 0.00 | 0.00 | 0.00 | 41 | 1015.8 |
| 20260501235716 | 17 | 70 | 1.6 | 1.6 | 0.00 | 0.00 | 0.00 | 40 | 1016.1 |
| 20260501235212 | 17 | 330 | 4.8 | 4.8 | 0.00 | 0.00 | 0.00 | 37 | 1016.1 |
| 20260501234708 | 18 | 77 | 3.2 | 4.8 | 0.00 | 0.00 | 0.00 | 40 | 1016.0 |
| 20260501234205 | 18 | 44 | 4.8 | 8.0 | 0.00 | 0.00 | 0.00 | 37 | 1015.9 |
| 20260501233703 | 18 | 112 | 4.8 | 8.0 | 0.00 | 0.00 | 0.00 | 39 | 1015.8 |
| 20260501233200 | 18 | 75 | 3.2 | 4.8 | 0.00 | 0.00 | 0.00 | 37 | 1015.8 |
| 20260501232655 | 20 | 63 | 1.6 | 1.6 | 0.00 | 0.00 | 0.00 | 39 | 1016.0 |
| 20260501232153 | 19 | 68 | 1.6 | 1.6 | 0.00 | 0.00 | 0.00 | 38 | 1015.9 |
| 20260501231651 | 18 | 93 | 3.2 | 3.2 | 0.00 | 0.00 | 0.00 | 38 | 1015.8 |
| 20260501231149 | 19 | 25 | 1.6 | 3.2 | 0.00 | 0.00 | 0.00 | 39 | 1015.8 |
| 20260501230647 | 20 | 82 | 1.6 | 1.6 | 0.00 | 0.00 | 0.00 | 38 | 1016.0 |
| 20260501230145 | 19 | 64 | 1.6 | 1.6 | 0.00 | 0.00 | 0.00 | 41 | 1015.7 |
| 20260501225642 | 18 | 84 | 3.2 | 4.8 | 0.00 | 0.00 | 0.00 | 36 | 1015.5 |
| 20260501225139 | 19 | 84 | 0.0 | 0.0 | 0.00 | 0.00 | 0.00 | 41 | 1015.8 |
| 20260501224635 | 19 | 81 | 0.0 | 1.6 | 0.00 | 0.00 | 0.00 | 41 | 1015.6 |
| 20260501224133 | 19 | 85 | 3.2 | 3.2 | 0.00 | 0.00 | 0.00 | 37 | 1015.8 |
| 20260501223629 | 19 | 5 | 6.4 | 9.7 | 0.00 | 0.00 | 0.00 | 35 | 1016.0 |
| 20260501223126 | 20 | 84 | 0.0 | 1.6 | 0.00 | 0.00 | 0.00 | 39 | 1015.9 |
| 20260501222622 | 20 | 358 | 4.8 | 4.8 | 0.00 | 0.00 | 0.00 | 37 | 1015.9 |
| 20260501222119 | 20 | 61 | 1.6 | 3.2 | 0.00 | 0.00 | 0.00 | 36 | 1015.9 |
| 20260501221615 | 18 | 86 | 1.6 | 1.6 | 0.00 | 0.00 | 0.00 | 40 | 1015.8 |
| 20260501221113 | 17 | 70 | 1.6 | 3.2 | 0.00 | 0.00 | 0.00 | 45 | 1016.0 |
| 20260501220611 | 17 | 86 | 1.6 | 1.6 | 0.00 | 0.00 | 0.00 | 43 | 1016.0 |
| 20260501220108 | 17 | 85 | 0.0 | 0.0 | 0.00 | 0.00 | 0.00 | 44 | 1016.1 |
| 20260501215604 | 17 | 95 | 1.6 | 1.6 | 0.00 | 0.00 | 0.00 | 45 | 1015.9 |
| 20260501215059 | 17 | 59 | 3.2 | 3.2 | 0.00 | 0.00 | 0.00 | 41 | 1016.3 |
| 20260501214554 | 18 | 90 | 1.6 | 1.6 | 0.00 | 0.00 | 0.00 | 38 | 1016.1 |
| 20260501214050 | 20 | 83 | 1.6 | 3.2 | 0.00 | 0.00 | 0.00 | 40 | 1016.1 |
| 20260501213547 | 20 | 104 | 4.8 | 8.0 | 0.00 | 0.00 | 0.00 | 36 | 1016.2 |
| 20260501213044 | 19 | 68 | 3.2 | 3.2 | 0.00 | 0.00 | 0.00 | 42 | 1016.1 |
| 20260501212540 | 18 | 229 | 6.4 | 8.0 | 0.00 | 0.00 | 0.00 | 38 | 1016.3 |
| 20260501212037 | 17 | 39 | 3.2 | 3.2 | 0.00 | 0.00 | 0.00 | 43 | 1016.7 |
| 20260501211534 | 17 | 80 | 1.6 | 1.6 | 0.00 | 0.00 | 0.00 | 45 | 1016.5 |
| 20260501211032 | 17 | 72 | 0.0 | 1.6 | 0.00 | 0.00 | 0.00 | 43 | 1016.9 |
| 20260501210527 | 17 | 92 | 1.6 | 1.6 | 0.00 | 0.00 | 0.00 | 44 | 1016.8 |
| 20260501210025 | 17 | 86 | 0.0 | 1.6 | 0.00 | 0.00 | 0.00 | 41 | 1016.7 |
| 20260501205521 | 17 | 351 | 8.0 | 9.7 | 0.00 | 0.00 | 0.00 | 38 | 1017.0 |
| 20260501205019 | 18 | 93 | 0.0 | 1.6 | 0.00 | 0.00 | 0.00 | 40 | 1017.0 |
| 20260501204515 | 18 | 68 | 3.2 | 3.2 | 0.00 | 0.00 | 0.00 | 38 | 1017.1 |
| 20260501204011 | 19 | 82 | 1.6 | 1.6 | 0.00 | 0.00 | 0.00 | 40 | 1017.2 |
| 20260501203508 | 19 | 70 | 3.2 | 3.2 | 0.00 | 0.00 | 0.00 | 41 | 1017.3 |
| 20260501203006 | 18 | 106 | 3.2 | 3.2 | 0.00 | 0.00 | 0.00 | 40 | 1017.3 |
| 20260501202502 | 18 | 272 | 11.3 | 12.9 | 0.00 | 0.00 | 0.00 | 36 | 1017.4 |
| 20260501201959 | 19 | 70 | 6.4 | 9.7 | 0.00 | 0.00 | 0.00 | 35 | 1017.6 |
| 20260501201456 | 20 | 198 | 6.4 | 9.7 | 0.00 | 0.00 | 0.00 | 37 | 1017.5 |
| 20260501200952 | 20 | 103 | 6.4 | 11.3 | 0.00 | 0.00 | 0.00 | 40 | 1017.4 |
| 20260501200445 | 20 | 219 | 6.4 | 9.7 | 0.00 | 0.00 | 0.00 | 35 | 1017.6 |
| 20260501195941 | 18 | 14 | 4.8 | 4.8 | 0.00 | 0.00 | 0.00 | 38 | 1017.7 |
| 20260501195438 | 18 | 107 | 1.6 | 1.6 | 0.00 | 0.00 | 0.00 | 45 | 1017.8 |
| 20260501194934 | 18 | 72 | 1.6 | 1.6 | 0.00 | 0.00 | 0.00 | 47 | 1017.7 |
| 20260501194430 | 18 | 163 | 3.2 | 3.2 | 0.00 | 0.00 | 0.00 | 42 | 1017.7 |
| 20260501193926 | 19 | 56 | 3.2 | 3.2 | 0.00 | 0.00 | 0.00 | 39 | 1017.5 |
| 20260501193424 | 18 | 254 | 4.8 | 4.8 | 0.00 | 0.00 | 0.00 | 43 | 1017.6 |
| 20260501192922 | 18 | 89 | 3.2 | 3.2 | 0.00 | 0.00 | 0.00 | 39 | 1017.6 |
| 20260501192419 | 18 | 70 | 3.2 | 3.2 | 0.00 | 0.00 | 0.00 | 45 | 1017.8 |
| 20260501191916 | 17 | 251 | 9.7 | 11.3 | 0.00 | 0.00 | 0.00 | 39 | 1017.9 |
| 20260501191413 | 18 | 127 | 3.2 | 3.2 | 0.00 | 0.00 | 0.00 | 42 | 1017.7 |
| 20260501190910 | 17 | 284 | 1.6 | 3.2 | 0.00 | 0.00 | 0.00 | 45 | 1018.0 |
| 20260501190406 | 17 | 163 | 3.2 | 4.8 | 0.00 | 0.00 | 0.00 | 41 | 1018.1 |
| 20260501185901 | 17 | 227 | 4.8 | 4.8 | 0.00 | 0.00 | 0.00 | 41 | 1017.9 |
| 20260501185357 | 17 | 87 | 1.6 | 1.6 | 0.00 | 0.00 | 0.00 | 42 | 1018.0 |
| 20260501184853 | 18 | 171 | 3.2 | 4.8 | 0.00 | 0.00 | 0.00 | 42 | 1018.0 |
| 20260501184349 | 18 | 77 | 4.8 | 4.8 | 0.00 | 0.00 | 0.00 | 41 | 1018.0 |
| 20260501183844 | 18 | 253 | 4.8 | 8.0 | 0.00 | 0.00 | 0.00 | 40 | 1018.0 |
| 20260501183342 | 17 | 263 | 6.4 | 8.0 | 0.00 | 0.00 | 0.00 | 39 | 1018.2 |
| 20260501182838 | 18 | 83 | 3.2 | 4.8 | 0.00 | 0.00 | 0.00 | 40 | 1018.1 |
| 20260501182335 | 17 | 78 | 1.6 | 1.6 | 0.00 | 0.00 | 0.00 | 44 | 1018.1 |
| 20260501181832 | 18 | 216 | 3.2 | 4.8 | 0.00 | 0.00 | 0.00 | 41 | 1018.1 |
| 20260501181329 | 18 | 106 | 3.2 | 3.2 | 0.00 | 0.00 | 0.00 | 45 | 1018.1 |
| 20260501180827 | 18 | 146 | 3.2 | 4.8 | 0.00 | 0.00 | 0.00 | 40 | 1018.1 |
| 20260501180322 | 18 | 274 | 6.4 | 8.0 | 0.00 | 0.00 | 0.00 | 43 | 1018.5 |
| 20260501175820 | 18 | 108 | 1.6 | 3.2 | 0.00 | 0.00 | 0.00 | 41 | 1018.4 |
| 20260501175316 | 17 | 81 | 1.6 | 3.2 | 0.00 | 0.00 | 0.00 | 37 | 1018.4 |
| 20260501174813 | 17 | 77 | 4.8 | 4.8 | 0.00 | 0.00 | 0.00 | 40 | 1018.3 |
| 20260501174310 | 18 | 237 | 8.0 | 11.3 | 0.00 | 0.00 | 0.00 | 38 | 1018.5 |
| 20260501173809 | 18 | 209 | 4.8 | 9.7 | 0.00 | 0.00 | 0.00 | 40 | 1018.4 |
| 20260501173307 | 17 | 151 | 1.6 | 1.6 | 0.00 | 0.00 | 0.00 | 42 | 1018.7 |
| 20260501172801 | 17 | 76 | 3.2 | 3.2 | 0.00 | 0.00 | 0.00 | 46 | 1018.8 |
| 20260501172257 | 16 | 84 | 0.0 | 1.6 | 0.00 | 0.00 | 0.00 | 43 | 1018.5 |
| 20260501171752 | 17 | 268 | 4.8 | 8.0 | 0.00 | 0.00 | 0.00 | 44 | 1018.8 |
| 20260501171249 | 16 | 227 | 4.8 | 4.8 | 0.00 | 0.00 | 0.00 | 38 | 1018.8 |
| 20260501170746 | 17 | 277 | 6.4 | 9.7 | 0.00 | 0.00 | 0.00 | 37 | 1019.0 |
| 20260501170243 | 17 | 74 | 3.2 | 8.0 | 0.00 | 0.00 | 0.00 | 39 | 1019.0 |
| 20260501165740 | 16 | 62 | 3.2 | 4.8 | 0.00 | 0.00 | 0.00 | 39 | 1019.1 |
| 20260501165238 | 16 | 71 | 1.6 | 3.2 | 0.00 | 0.00 | 0.00 | 46 | 1019.0 |
| 20260501164736 | 15 | 237 | 4.8 | 8.0 | 0.00 | 0.00 | 0.00 | 40 | 1019.3 |
| 20260501164232 | 15 | 180 | 1.6 | 3.2 | 0.00 | 0.00 | 0.00 | 39 | 1019.1 |
| 20260501163728 | 16 | 235 | 6.4 | 8.0 | 0.00 | 0.00 | 0.00 | 43 | 1018.9 |
| 20260501163226 | 16 | 257 | 6.4 | 8.0 | 0.00 | 0.00 | 0.00 | 44 | 1019.1 |
| 20260501162722 | 16 | 185 | 3.2 | 4.8 | 0.00 | 0.00 | 0.00 | 42 | 1019.2 |
| 20260501162218 | 15 | 265 | 9.7 | 11.3 | 0.00 | 0.00 | 0.00 | 44 | 1019.0 |
| 20260501161716 | 15 | 238 | 8.0 | 11.3 | 0.00 | 0.00 | 0.00 | 44 | 1019.0 |
| 20260501161213 | 16 | 132 | 1.6 | 3.2 | 0.00 | 0.00 | 0.00 | 48 | 1019.0 |
| 20260501160709 | 15 | 122 | 4.8 | 4.8 | 0.00 | 0.00 | 0.00 | 49 | 1019.1 |
| 20260501160206 | 15 | 203 | 6.4 | 9.7 | 0.00 | 0.00 | 0.00 | 47 | 1019.1 |
| 20260501155703 | 15 | 258 | 4.8 | 8.0 | 0.00 | 0.00 | 0.00 | 50 | 1019.0 |
| 20260501155200 | 14 | 221 | 8.0 | 11.3 | 0.00 | 0.00 | 0.00 | 49 | 1019.0 |
| 20260501154657 | 14 | 329 | 3.2 | 4.8 | 0.00 | 0.00 | 0.00 | 47 | 1019.1 |
| 20260501154154 | 14 | 248 | 12.9 | 14.5 | 0.00 | 0.00 | 0.00 | 46 | 1019.2 |
| 20260501153652 | 14 | 183 | 8.0 | 12.9 | 0.00 | 0.00 | 0.00 | 37 | 1018.9 |
| 20260501153149 | 14 | 270 | 8.0 | 11.3 | 0.00 | 0.00 | 0.00 | 46 | 1018.9 |
| 20260501152645 | 13 | 269 | 6.4 | 8.0 | 0.00 | 0.00 | 0.00 | 48 | 1019.1 |
| 20260501152142 | 13 | 172 | 4.8 | 4.8 | 0.00 | 0.00 | 0.00 | 54 | 1018.9 |
| 20260501151639 | 13 | 137 | 3.2 | 3.2 | 0.00 | 0.00 | 0.00 | 56 | 1018.9 |
| 20260501151136 | 12 | 109 | 3.2 | 3.2 | 0.00 | 0.00 | 0.00 | 58 | 1018.9 |
| 20260501150632 | 12 | 109 | 3.2 | 4.8 | 0.00 | 0.00 | 0.00 | 61 | 1018.9 |
| 20260501150128 | 12 | 269 | 9.7 | 12.9 | 0.00 | 0.00 | 0.00 | 61 | 1019.0 |
| 20260501145624 | 12 | 162 | 4.8 | 8.0 | 0.00 | 0.00 | 0.00 | 65 | 1019.0 |
| 20260501145123 | 12 | 335 | 4.8 | 8.0 | 0.00 | 0.00 | 0.00 | 62 | 1019.1 |
| 20260501144618 | 12 | 115 | 1.6 | 3.2 | 0.00 | 0.00 | 0.00 | 65 | 1018.9 |
| 20260501144118 | 12 | 162 | 4.8 | 4.8 | 0.00 | 0.00 | 0.00 | 68 | 1018.9 |
| 20260501143615 | 12 | 144 | 4.8 | 4.8 | 0.00 | 0.00 | 0.00 | 62 | 1018.7 |
| 20260501143113 | 12 | 174 | 4.8 | 8.0 | 0.00 | 0.00 | 0.00 | 65 | 1018.7 |